Tracking 29892 objects as of 21-Nov-2024
HD Live streaming from Space Station
objects crossing your sky now

ARIANE 44L R/B

Track ARIANE 44L R/B now!


NORAD ID: 26696
Int'l Code: 2001-005C
Perigee: 323.7 km
Apogee: 30,536.6 km
Inclination: 7.4 °
Period: 533.9 minutes
Semi major axis: 21801 km
RCS: 23.3181 m2 (large)
Launch date: February 7, 2001
Source: France (FR)
Launch site: FRENCH GUIANA (FRGUI)

Note: This is a ROCKET BODY
Your satellite tracking list
Your tracking list is empty




NASA's NSSDC Master Catalog

Two Line Element Set (TLE):
1 26696U 01005C   24325.20446736  .00004033  00000-0  29280-2 0  9996
2 26696   7.3664 348.5495 6929185 322.7898   5.0932  2.69701655213853
Source of the keplerian elements: AFSPC